{"data":{"norad_id":65779,"epoch":"2026-09-20T11:03:39.394368Z","epoch_age_seconds":150094,"freshness":"FRESH","line1":"1 65779U 25217T   26263.46087262 -.00002928  00000+0 -35522-3 0  9997","line2":"2 65779  51.9033 241.8886 0000555 100.9787 259.1238 14.79939173 53990","mean_motion":14.79939173,"eccentricity":5.55e-5,"inclination_deg":51.9033,"raan_deg":241.8886,"arg_perigee_deg":100.9787,"mean_anomaly_deg":259.1238,"bstar":-0.00035522,"rev_number":5399,"period_min":97.301296314832,"perigee_km":629.12721786199,"apogee_km":629.90506736082,"semimajor_km":7007.6531426114,"source":"CELESTRAK","updated_at":"2026-09-21T09:00:15.560892Z"}}